COSMOS 2584 (704K)

Last updated on Tue Jul 01 2025 00:03:16 GMT+0000 (Coordinated Universal Time)

1 63130U 25042A 25181.19724521 -.00000029 00000+0 00000+0 0 9994 2 63130 64.8825 84.7866 0005987 222.1098 137.8832 2.13103936 2541
UTC large
Height (km)
Speed (km/s)
/
Latitude / Longitude
Inclination (degrees)
Orbital Period (minutes)
Azimuth
Elevation
Range (km)
Doppler Factor

Next 0 passes for location: London (51.5072 / 0.1276)

Sorry there are no passes over London.